Powrót do katalogu

STARLINK-5540

AktywnyŁącznośćSSO
NORAD 56340·PAYLOAD·🇺🇸 United States

Wystrzelony Apr 27, 2023 z Vandenberg Space Force Base

Loading…

Następne Przeloty (najbliższe 24 godziny)

TLE

ŚwieżeSource: CelesTrak SupGP

Epoka: Sep 14, 2026, 20:59 UTC

1 56340C 23058Z   26257.87479167  .00064127  00000+0  19894-2 0  2576
2 56340  97.2849 254.7683 0001876  95.1731  27.0850 15.33426895    11

Śledź STARLINK-5540 w czasie rzeczywistym z AllMySat

Download on the App Store